STARLINK-4454 (53499 NORAD) Tracking and Keplerian Element Data

This shows tracking and keplerian element data for the satellite.

Feedback or suggestion? Click here.




ElementValue
Catalog53499
NameSTARLINK-4454
Epoch Orbit1552
Epoch Day325.26771566
Epoch Year2022
RAAN84.3316
Inclination97.6563
Eccentricity0.0002807
Argument of Perigee19.6346
Mean Anonmoly340.4986
Mean Motion15.01255707
Decay Rate1.6E-06
L11 53499U 22099AL 22325.26771566 .00000160 00000+0 17072-4 0 9993
L22 53499 97.6563 84.3316 0002807 19.6346 340.4986 15.01255707 15529



Live tracking and technical data element details for STARLINK-4454 (NORAD 53499). STARLINK-4454 can be tracked NOW for your location showing map with azimuth and elevation plus other details from your city location.







IsCatalogInMostPopularTable: catalog: 53499, numindb: 5
Update: records affected: 1



GetName: 53499 STARLINK-4454

Hit Count: updated at: Thu, 08 Dec 2022 19:31:14 GMT